Location: Unspecified
(48.2082°N, 0.0000°E)
Time: 21:25:12
(UTC+00:00)

ISS - Visible Passes

Search period start: 20 May 2019 00:00
Search period end: 30 May 2019 00:00
Orbit: 408 x 410 km, 51.6° (Epoch: 21 May)

Date Brightness Start Highest point End Pass type
(mag) Time Alt. Az. Time Alt. Az. Time Alt. Az.
20 May -3.4 00:50:38 10° WNW 00:53:56 63° NNE 00:57:13 10° E visible
20 May -3.2 02:27:21 10° W 02:30:23 33° SW 02:33:24 10° SSE visible
20 May -3.8 20:46:09 10° SW 20:49:24 57° SSE 20:52:39 10° ENE visible
20 May -2.9 22:22:49 10° W 22:26:02 49° N 22:29:17 10° ENE visible
20 May -3.0 23:59:42 10° WNW 00:02:57 50° N 00:04:32 26° ENE visible
21 May -1.6 01:36:20 10° WNW 01:37:08 16° WNW 01:37:08 16° WNW visible
21 May -3.2 21:31:47 10° W 21:35:03 60° NNW 21:38:21 10° ENE visible
21 May -2.7 23:08:44 10° WNW 23:11:57 45° N 23:14:15 17° ENE visible
22 May -2.1 00:45:23 10° WNW 00:46:56 25° WNW 00:46:56 25° WNW visible
22 May -3.7 20:40:47 10° WSW 20:44:05 80° NNW 20:47:25 10° ENE visible
22 May -2.6 22:17:43 10° WNW 22:20:55 43° N 22:24:06 10° ENE visible
22 May -3.3 23:54:27 10° WNW 23:57:15 58° NW 23:57:15 58° NW visible
23 May -2.7 21:26:40 10° W 21:29:53 46° N 21:33:05 10° ENE visible
23 May -3.2 23:03:30 10° WNW 23:06:46 56° NNE 23:07:45 38° ENE visible
24 May -1.2 00:40:10 10° WNW 00:40:27 12° WNW 00:40:27 12° WNW visible
24 May -3.0 20:35:35 10° W 20:38:51 54° NNW 20:42:06 10° ENE visible
24 May -2.8 22:12:31 10° WNW 22:15:44 47° N 22:18:18 15° E visible
24 May -2.4 23:49:08 10° WNW 23:51:00 30° W 23:51:00 30° W visible
25 May -2.6 21:21:29 10° WNW 21:24:41 44° N 21:27:52 10° ENE visible
25 May -3.9 22:58:09 10° WNW 23:01:29 85° NNE 23:01:36 81° ENE visible
26 May -2.6 20:30:24 10° WNW 20:33:36 44° N 20:36:48 10° ENE visible
26 May -3.4 22:07:11 10° WNW 22:10:29 63° NNE 22:12:13 25° E visible
26 May -1.6 23:43:55 10° W 23:44:56 17° W 23:44:56 17° W visible
27 May -3.0 21:16:10 10° WNW 21:19:25 51° N 21:22:40 10° E visible
27 May -3.3 22:52:49 10° WNW 22:55:34 47° WSW 22:55:34 47° WSW visible
28 May -2.7 20:25:08 10° WNW 20:28:20 45° N 20:31:32 10° E visible
28 May -3.9 22:01:46 10° WNW 22:05:05 80° SSW 22:06:14 38° ESE visible
29 May -3.6 21:10:45 10° WNW 21:14:04 73° NNE 21:16:55 13° ESE visible
29 May -2.2 22:47:35 10° W 22:49:38 23° WSW 22:49:38 23° WSW visible
